Location: Sluknov
(51.0170°N, 14.4670°E)
Time: 11:52:03
(UTC+01:00)

ARIANE 6 FM1 Upper Stage - Visible Passes

Search period start: 17 February 2026 00:00
Search period end: 27 February 2026 00:00
Orbit: 522 x 608 km, 62.0° (Epoch: 16 February)

Date Brightness Start Highest point End Pass type
(mag) Time Alt. Az. Time Alt. Az. Time Alt. Az.
17 Feb 2.6 18:39:43 10° NW 18:43:41 77° SW 18:47:30 11° SE visible
17 Feb 5.4 20:20:30 10° W 20:22:01 12° WSW 20:23:31 10° SW visible
18 Feb 3.2 18:39:43 10° NW 18:43:36 55° SW 18:47:29 10° SSE visible
19 Feb 3.9 18:39:47 10° WNW 18:43:29 39° SW 18:47:12 10° SSE visible
20 Feb 4.6 18:39:54 10° WNW 18:43:20 28° SW 18:46:45 10° S visible
21 Feb 5.2 18:40:09 10° WNW 18:43:08 21° WSW 18:46:07 10° S visible
22 Feb 5.6 18:40:38 10° W 18:42:53 15° WSW 18:45:09 10° SSW visible
23 Feb 6.1 18:41:58 10° WSW 18:42:37 10° WSW 18:43:15 10° SW visible
